Stations météo

réclame
Mon MeteoGroup
Florennes, Belgique (6456): Température de l'air & dewpoint: 15.09.2018 10:00:00 - 21.09.2018 10:00:00 (CEST)Florennes, Belgique (6456): Vitesse du vent & gusts: 15.09.2018 10:00:00 - 21.09.2018 10:00:00 (CEST)Florennes, Belgique (6456): Direction du vent: 15.09.2018 10:00:00 - 21.09.2018 10:00:00 (CEST)Florennes, Belgique (6456): reduced air pressure: 15.09.2018 10:00:00 - 21.09.2018 10:00:00 (CEST)Florennes, Belgique (6456): visibility: 15.09.2018 10:00:00 - 21.09.2018 10:00:00 (CEST)
Date & Time tt [°C] td [°C] ff [km/h] ff [knt] fx [km/h] fx [knt] dd ppp [hPa] vv [km]
21.09.2018 10:00:00 - - - - - - - - -
21.09.2018 09:00:00 - - - - - - - - -
21.09.2018 08:00:00 17,3 11,7 - - - - - 1006,2 20
21.09.2018 07:00:00 17,4 11,2 - - 0 0 - 1006,0 20
21.09.2018 06:00:00 17,3 11,2 - - 0 0 - 1006,2 20
21.09.2018 05:00:00 17,7 11,3 - - - - - 1006,7 20
21.09.2018 04:00:00 17,8 11,4 - - 0 0 - 1007,7 20
21.09.2018 03:00:00 18,3 11,2 - - 0 0 - 1008,7 20
21.09.2018 02:00:00 18,2 11,3 - - - - - 1009,3 20
21.09.2018 01:00:00 18,2 11,6 - - 0 0 - 1010,0 20
21.09.2018 00:00:00 18,2 11,9 - - 0 0 - 1010,6 20
20.09.2018 23:00:00 18,5 11,8 - - - - - 1011,3 20
20.09.2018 22:00:00 18,8 11,6 - - 0 0 - 1012,2 20
20.09.2018 21:00:00 19,8 11,3 - - 0 0 - 1012,7 20
20.09.2018 20:00:00 20,4 11,1 - - - - - 1013,0 20
20.09.2018 19:00:00 21,5 11,8 - - 0 0 - 1013,3 20
20.09.2018 18:00:00 22,2 11,0 22 12 0 0 S 1014,0 20
20.09.2018 17:00:00 23,1 12,6 22 12 - - S 1014,6 20
20.09.2018 16:00:00 22,5 12,3 25 14 0 0 SW 1015,7 20
20.09.2018 15:00:00 21,7 12,2 25 14 0 0 SW 1016,5 20
20.09.2018 14:00:00 21,4 12,8 25 14 - - SW 1017,2 20
20.09.2018 13:00:00 19,9 12,9 7 4 0 0 SW 1018,1 20
20.09.2018 12:00:00 19,9 13,2 7 4 0 0 SW 1018,2 20
20.09.2018 11:00:00 18,4 13,0 7 4 - - SW 1018,6 20
20.09.2018 10:00:00 16,5 12,9 7 4 0 0 SW 1018,8 20
20.09.2018 09:00:00 14,8 11,9 7 4 0 0 SW 1019,0 20
20.09.2018 08:00:00 14,2 11,6 7 4 - - SW 1018,8 20
20.09.2018 07:00:00 14,8 11,6 7 4 0 0 SW 1018,7 20
20.09.2018 06:00:00 15,3 11,7 7 4 0 0 SW 1018,8 20
20.09.2018 05:00:00 15,1 11,5 - - - - - 1018,7 20
20.09.2018 04:00:00 15,6 11,6 - - 0 0 - 1018,8 20
20.09.2018 03:00:00 15,5 11,5 - - 0 0 - 1018,8 20
20.09.2018 02:00:00 16,0 11,5 - - - - - 1019,0 20
20.09.2018 01:00:00 16,2 11,5 - - 0 0 - 1019,5 20
20.09.2018 00:00:00 17,1 11,3 - - 0 0 - 1019,6 20
19.09.2018 23:00:00 17,5 11,3 - - - - - 1019,7 20
19.09.2018 22:00:00 17,6 11,2 - - 0 0 - 1019,3 20
19.09.2018 21:00:00 18,6 11,2 - - 0 0 - 1019,0 20
19.09.2018 20:00:00 19,3 11,7 - - - - - 1018,7 20
19.09.2018 19:00:00 21,7 11,9 - - 0 0 - 1018,2 20
19.09.2018 18:00:00 22,8 11,7 - - 0 0 - 1017,6 20
19.09.2018 17:00:00 23,5 11,4 18 10 - - SW 1017,3 15
19.09.2018 16:00:00 23,5 11,9 18 10 0 0 SW 1017,2 15
19.09.2018 15:00:00 23,5 12,6 22 12 0 0 SSW 1017,5 15
19.09.2018 14:00:00 22,6 13,3 18 10 - - SW 1017,8 15
19.09.2018 13:00:00 21,2 14,2 22 12 0 0 SW 1018,2 15
19.09.2018 12:00:00 22,1 15,2 18 10 0 0 SSW 1017,7 15
19.09.2018 11:00:00 20,3 14,9 18 10 - - SSW 1017,7 15
19.09.2018 10:00:00 17,9 15,2 7 4 0 0 S 1018,1 15
19.09.2018 09:00:00 16,2 14,9 7 4 0 0 S 1018,0 15
19.09.2018 08:00:00 15,8 14,5 7 4 - - S 1017,6 15
19.09.2018 07:00:00 15,6 14,4 7 4 0 0 S 1017,5 15
19.09.2018 06:00:00 16,0 14,5 7 4 0 0 S 1017,7 15
19.09.2018 05:00:00 15,9 14,5 - - - - - 1017,5 20
19.09.2018 04:00:00 15,8 14,3 - - 0 0 - 1017,5 19
19.09.2018 03:00:00 16,2 14,8 - - 0 0 - 1017,7 19
19.09.2018 02:00:00 16,1 14,7 - - - - - 1017,6 18
19.09.2018 01:00:00 16,2 14,6 - - 0 0 - 1017,6 20
19.09.2018 00:00:00 17,0 15,0 - - 0 0 - 1017,3 20
18.09.2018 23:00:00 17,2 14,7 - - - - - 1017,0 20
18.09.2018 22:00:00 19,0 15,2 - - 0 0 - 1016,7 20
18.09.2018 21:00:00 19,8 14,7 - - 0 0 - 1016,2 20
18.09.2018 20:00:00 21,2 12,7 - - - - - 1015,2 20
18.09.2018 19:00:00 22,7 13,8 - - 0 0 - 1014,6 20
18.09.2018 18:00:00 24,2 13,3 - - 0 0 - 1014,1 20
18.09.2018 17:00:00 24,2 11,3 22 12 - - SW 1013,8 20
18.09.2018 16:00:00 25,2 12,7 22 12 0 0 SW 1013,7 20
18.09.2018 15:00:00 25,4 12,1 22 12 0 0 SW 1013,3 20
18.09.2018 14:00:00 24,7 13,3 22 12 - - SSW 1013,2 20
18.09.2018 13:00:00 24,1 12,8 22 12 0 0 SSW 1013,2 20
18.09.2018 12:00:00 23,5 11,3 18 10 0 0 SSW 1013,5 20
18.09.2018 11:00:00 21,7 12,0 18 10 - - SSW 1013,2 20
18.09.2018 10:00:00 20,6 12,1 14 8 0 0 SSW 1013,2 20
18.09.2018 09:00:00 19,1 10,9 11 6 0 0 S 1012,8 20
18.09.2018 08:00:00 18,0 9,9 11 6 - - S 1012,5 20
18.09.2018 07:00:00 17,5 9,6 11 6 0 0 SSE 1012,2 20
18.09.2018 06:00:00 16,9 9,4 11 6 0 0 SSE 1012,5 20
18.09.2018 05:00:00 17,1 9,5 11 6 - - SSE 1012,7 20
18.09.2018 04:00:00 17,8 9,4 - - 0 0 - 1012,8 20
18.09.2018 03:00:00 16,6 8,9 - - 0 0 - 1013,3 20
18.09.2018 02:00:00 16,9 7,9 - - - - - 1013,7 20
18.09.2018 01:00:00 16,7 7,3 - - 0 0 - 1014,2 20
18.09.2018 00:00:00 17,4 7,0 - - 0 0 - 1014,6 20
17.09.2018 23:00:00 18,0 6,9 - - - - - 1014,7 20
17.09.2018 22:00:00 18,2 6,1 - - 0 0 - 1015,1 20
17.09.2018 21:00:00 19,2 6,1 - - 0 0 - 1015,2 20
17.09.2018 20:00:00 20,3 6,4 - - - - - 1015,2 20
17.09.2018 19:00:00 22,8 5,3 - - 0 0 - 1015,3 20
17.09.2018 18:00:00 23,7 6,1 - - 0 0 - 1015,5 20
17.09.2018 17:00:00 24,2 5,2 11 6 - - SSE 1016,1 30
17.09.2018 16:00:00 24,5 3,9 11 6 0 0 S 1016,8 30
17.09.2018 15:00:00 23,9 1,9 11 6 0 0 S 1017,7 30
17.09.2018 14:00:00 22,7 6,1 7 4 - - SW 1018,5 30
17.09.2018 13:00:00 21,4 7,1 11 6 0 0 SW 1019,2 30
17.09.2018 12:00:00 20,2 8,9 4 2 0 0 N 1019,7 30
17.09.2018 11:00:00 18,6 8,8 4 2 - - N 1020,1 30
17.09.2018 10:00:00 17,1 8,9 4 2 0 0 N 1020,2 30
17.09.2018 09:00:00 14,1 9,2 4 2 0 0 N 1020,6 30
17.09.2018 08:00:00 9,8 7,5 7 4 - - ESE 1020,7 30
17.09.2018 07:00:00 10,9 7,2 4 2 0 0 N 1020,7 30
17.09.2018 06:00:00 10,2 7,5 4 2 0 0 N 1021,2 30
17.09.2018 05:00:00 10,1 7,4 - - - - - 1021,0 20
17.09.2018 04:00:00 10,8 7,5 - - 0 0 - 1021,1 20
17.09.2018 03:00:00 11,1 7,4 - - 0 0 - 1021,2 20
17.09.2018 02:00:00 10,8 7,5 - - - - - 1021,3 20
17.09.2018 01:00:00 11,8 7,8 - - 0 0 - 1021,1 20
17.09.2018 00:00:00 14,3 7,8 - - 0 0 - 1021,2 20
16.09.2018 23:00:00 15,5 7,8 - - - - - 1021,2 20
16.09.2018 22:00:00 16,0 7,8 - - 0 0 - 1021,1 20
16.09.2018 21:00:00 17,1 8,7 - - 0 0 - 1020,6 20
16.09.2018 20:00:00 18,0 9,3 - - - - - 1020,1 20
16.09.2018 19:00:00 20,5 7,2 - - 0 0 - 1019,6 20
16.09.2018 18:00:00 22,0 7,5 - - 0 0 - 1019,2 20
16.09.2018 17:00:00 22,1 7,0 - - - - - 1019,3 20
16.09.2018 16:00:00 22,3 6,9 - - 0 0 - 1019,7 20
16.09.2018 15:00:00 21,3 7,9 - - 0 0 - 1020,5 20
16.09.2018 14:00:00 20,6 8,1 - - - - - 1021,1 20
16.09.2018 13:00:00 19,5 8,5 - - 0 0 - 1021,7 20
16.09.2018 12:00:00 18,5 8,5 - - 0 0 - 1022,5 20
16.09.2018 11:00:00 16,7 8,9 - - - - - 1023,2 20
16.09.2018 10:00:00 14,8 9,0 - - 0 0 - 1023,6 20
16.09.2018 09:00:00 12,6 8,7 - - 0 0 - 1023,5 20
16.09.2018 08:00:00 9,6 8,1 - - - - - 1023,7 20
16.09.2018 07:00:00 9,8 7,7 - - 0 0 - 1023,8 20
16.09.2018 06:00:00 10,1 7,8 - - 0 0 - 1023,8 20
16.09.2018 05:00:00 10,6 8,1 - - - - - 1024,0 20
16.09.2018 04:00:00 10,7 8,1 - - 0 0 - 1024,4 20
16.09.2018 03:00:00 9,8 7,8 - - 0 0 - 1025,0 20
16.09.2018 02:00:00 9,9 7,5 - - - - - 1025,7 20
16.09.2018 01:00:00 11,9 8,0 - - 0 0 - 1025,7 20
16.09.2018 00:00:00 11,3 8,4 - - 0 0 - 1026,0 20
15.09.2018 23:00:00 12,6 8,9 - - - - - 1026,0 20
15.09.2018 22:00:00 13,3 9,2 - - 0 0 - 1026,0 20
15.09.2018 21:00:00 13,8 9,2 - - 0 0 - 1025,5 20
15.09.2018 20:00:00 15,5 9,4 - - - - - 1025,0 20
15.09.2018 19:00:00 17,1 8,9 - - 0 0 - 1024,5 20
15.09.2018 18:00:00 17,9 8,0 - - 0 0 - 1024,5 20
15.09.2018 17:00:00 17,7 8,5 - - - - - 1025,0 20
15.09.2018 16:00:00 17,5 8,4 - - 0 0 - 1025,2 20
15.09.2018 15:00:00 17,4 8,9 - - 0 0 - 1025,2 20
15.09.2018 14:00:00 18,1 8,8 - - - - - 1025,2 20
15.09.2018 13:00:00 16,1 9,3 - - 0 0 - 1025,7 20
15.09.2018 12:00:00 15,9 9,5 - - 0 0 - 1025,9 10
15.09.2018 11:00:00 14,7 10,6 - - - - - 1025,7 20
15.09.2018 10:00:00 13,1 10,8 - - 0 0 - 1025,5 10

tt = Température de l'air
td = dewpoint
ff = Vitesse du vent
fx = gusts
dd = Direction du vent
ppp = reduced air pressure
vv = visibility

stations d'obs. à proximité